STARLINK-1728, 46582

Orbit data source: Space-Track

STARLINK-1728, 46582 is a payload satellite owned by SpaceX/Seattle (US) in LEO that was launched on Tue, 06 Oct 2020 UTC via an FALCON 9 launch vehicle from the Air Force Eastern Test Range (AFETR). Payload-class satellites include a variety of spacecraft equipped with specific instruments for various scientific and technological missions. These include communications satellites like Starlink; space stations such as the ISS; scientific satellites like the Hubble; Earth observation satellites from companies like Planet Labs, Umbra, and HawkEye 360; GPS; miniature CubeSats for education and research; and military/defense satellites.

Loading next visibility...
Identifier
46582, 2020-070BC
Orbit
LEO
Country
Flag of USUS
Related business
Manufacturer
SpaceX/Seattle
Mission
Partially operational Commercial Communications
Bus & Motor
STARLINK, Unknown motor
Mass
260 kg wet, ~248 kg dry
Launch date (UTC)
2020-10-06 (5 years ago)
Launch vehicle
FALCON 9
Launch site
Air Force Eastern Test Range (AFETR)
Object type
Payload
Rocket body
Debris
Shape & HBR
Box + 1 Pan, 10.1 m
Radar Cross Section
13.562 m², Large (>1 m²)

Expand to show TLE details & history
Last TLE update: 20 hours ago

TLE from 20 hours ago
0 STARLINK-1728
1 46582U 20070BC  25312.36218573  .00076238  00000-0  26453-2 0  9990
2 46582  53.0512 338.8942 0002010  53.2010 306.9173 15.29129870281536
Epoch: 2025-11-08T08:41Z
TLE epoch observation values (Epoch: 2025-11-08T08:41:32.847Z)
Latitude
-0.00001°
Longitude
160.71444°
Altitude
478.472 km
Speed
7.628 km/s
True Right ascension
22h 35m 34s
True Declination
0° 00' 00"
Sunlit
Object was in full shadow at epoch
Visualization orbit readout
Latitude
Unknown
Longitude
Unknown
Altitude
Unknown
Speed
Unknown
Apparent Right ascension
Unknown
Apparent Declination
Unknown
Sunlit
N/A
Visualization observer readout
Local Sidereal Time
01:15:58
Azimuth
Unknown
Elevation
Unknown
Doppler factor
Unknown
Orbital elements
Apogee altitude
480.064 km
Perigee altitude
477.308 km
Semi-major axis
6,856.823 km
Eccentricity
0.0002
Inclination
53.0512°
RAAN
338.8942°
Arg. of periapsis
53.201°
True anomaly
306.89888°
Mean anomaly
306.9173°
Eccentric anomaly
306.90809°
Mean motion
3.8226 °/min
Orbital period
94.18 mins
BSTAR
0.0026453
Loading maneuver chart data...
Computing Atmospheric mass density...
Loading historical data...
Loading historical data...
Loading historical data...
Loading historical data...
Loading historical data...
Loading historical data...
Loading historical data...

Documentation

Showing up to 5 results
|